Temperature
20 20 21 21 21 19 18 17 17 18 18 17 16 16 16 17 19 20 21 22 22 23 23 23 23 23 23 22 22 22 21 21 20 20 20 19 19 18 18 18 18 17 17 17
21 21 21 21 20 20 19 18 18 18 18 17 15 15 15 16 17 18 19 21 21 22 22 23 23 23 23 22 22 22 21 21 20 20 20 19 19 18 18 18 18 17 17 17
19 20 21 20 20 19 18 18 18 18 17 16 15 14 14 14 15 16 17 19 20 21 21 22 22 22 22 22 22 21 21 21 20 20 19 19 19 18 18 18 18 17 17 17
17 20 20 19 18 18 18 17 16 16 16 15 14 14 14 14 15 16 17 18 19 20 20 20 21 21 21 21 20 20 20 19 19 19 19 18 18 18 18 17 17 17 17 16
16 18 19 18 18 17 17 17 16 16 15 15 15 15 14 14 15 16 17 17 18 18 19 19 19 19 19 19 19 19 18 18 18 18 18 17 17 17 17 17 16 16 16 16
15 18 18 18 18 18 18 17 17 16 15 15 16 15 13 14 15 16 16 17 17 17 18 18 18 18 18 18 17 17 17 16 16 16 16 16 16 16 16 15 15 15 15 15
16 17 17 17 17 17 17 17 17 16 16 16 14 14 14 14 15 16 16 16 16 17 17 16 16 16 16 16 15 15 15 15 15 15 15 15 15 14 14 14 14 14 14 14
14 16 17 16 17 16 16 16 16 16 16 15 14 14 14 14 15 15 15 15 15 15 15 15 15 15 15 14 14 14 14 14 14 13 13 13 13 13 13 12 12 12 13 13
14 15 15 15 15 16 16 16 16 16 15 15 14 14 14 14 14 15 15 14 14 14 14 14 14 13 13 13 13 13 13 13 12 12 12 12 12 12 12 11 11 11 11 11
14 14 14 15 15 16 16 16 16 15 15 15 14 14 14 14 14 14 14 13 13 13 13 13 12 12 12 12 11 12 12 11 11 11 11 11 11 10 10 10 10 10 10 10
14 13 13 14 15 15 16 16 15 15 15 15 15 14 14 14 13 13 13 12 12 12 12 11 11 11 11 11 11 11 10 10 10 10 10 10 10 9 9 9 9 9 9 9
14 14 13 13 14 15 15 15 15 14 14 14 14 14 13 13 13 12 12 12 11 11 11 11 10 10 10 10 10 10 10 10 9 9 9 9 9 9 9 9 8 8 8 8
15 15 15 14 14 14 15 14 14 14 14 14 13 13 13 13 12 12 11 11 11 11 10 10 10 10 10 10 10 9 9 9 9 9 9 8 8 8 8 8 8 8 8 7
14 14 13 13 13 14 14 14 14 14 13 13 13 13 13 12 12 11 11 11 10 10 10 10 10 10 10 9 9 9 9 9 8 8 8 8 7 7 7 6 6 7 7 7
14 14 14 13 13 13 13 13 13 13 13 13 13 12 12 12 11 11 11 10 10 10 10 10 10 10 9 9 9 9 9 8 8 8 7 7 7 6 6 6 5 5 5 6
14 14 13 13 13 13 13 13 13 13 13 12 12 12 12 11 11 11 10 10 10 10 10 10 10 10 9 9 9 9 8 8 7 7 7 6 6 5 5 5 4 4 4 4
13 13 13 13 13 13 13 13 13 13 12 12 12 11 11 11 11 11 10 10 10 10 10 10 9 9 9 9 8 8 8 7 7 6 6 5 5 5 4 4 3 3 3 4
14 13 13 13 13 13 13 12 12 12 12 12 11 11 11 11 11 10 10 10 10 10 10 10 9 9 9 8 8 7 7 6 6 5 4 4 4 3 3 3 3 3 3 3
13 13 13 13 12 12 12 12 12 12 11 11 11 11 11 10 10 10 10 10 10 10 9 9 9 8 8 7 7 6 6 5 4 4 3 3 2 2 2 2 2 2 2 2
12 12 12 12 12 12 12 11 11 11 11 11 11 10 10 10 10 10 10 10 10 9 9 8 8 8 7 6 6 5 4 3 3 2 2 1 1 1 1 1 1 1 1 1
11 11 12 11 11 11 11 11 11 11 10 10 10 10 10 10 10 10 10 9 9 8 8 7 7 6 6 5 4 3 3 2 1 1 0 0 0 0 0 0 0 0 1 1
11 11 11 11 11 11 10 10 10 10 10 10 10 10 10 10 9 9 9 8 8 7 7 6 6 5 4 4 3 2 1 1 0 -0 -0 -0 -1 -1 -0 -0 -0 0 0 1
10 10 10 10 10 10 10 10 10 10 10 9 9 9 9 9 9 8 8 7 7 6 6 5 4 3 3 2 1 1 0 -0 -1 -1 -1 -1 -1 -1 -1 -1 -0 -0 0 0
10 10 10 10 10 9 9 9 9 9 9 9 8 8 8 8 8 7 7 6 6 5 4 3 3 2 2 1 0 -0 -1 -1 -2 -2 -1 -1 -1 -1 -1 -1 -1 -0 0 0
9 9 9 9 9 9 8 8 8 8 8 8 8 7 7 7 7 6 6 5 4 3 3 2 1 1 0 -0 -1 -1 -2 -2 -2 -2 -2 -2 -2 -1 -1 -1 -1 -0 -0 0
8 8 8 8 8 8 7 7 7 7 7 7 7 6 6 6 5 5 4 3 3 2 1 1 0 -0 -1 -1 -2 -2 -2 -2 -2 -2 -2 -2 -2 -1 -1 -1 -1 -0 0 0
7 7 7 7 7 6 6 6 6 6 6 6 6 5 5 5 4 3 3 2 2 1 1 0 -0 -1 -1 -2 -2 -2 -2 -2 -2 -2 -2 -2 -2 -1 -1 -1 -1 -0 -0 0
Wind_Speed
6 5 3 4 4 5 7 8 8 7 5 5 6 6 6 4 3 1 1 2 5 7 7 7 7 8 9 10 9 10 10 12 13 12 10 10 10 10 10 10 11 10 10 10
2 2 3 3 3 3 4 4 5 3 3 1 3 3 6 8 7 6 5 4 3 2 3 4 6 7 7 7 7 8 10 11 10 8 9 10 10 10 10 10 10 9 10 11
3 2 2 4 5 5 4 4 6 6 4 2 4 9 9 9 10 10 9 7 5 3 2 2 2 3 5 5 5 7 8 7 6 7 8 9 8 8 10 10 10 11 11 11
2 2 6 8 2 4 4 2 2 3 3 4 6 6 7 8 9 11 11 11 10 7 6 5 4 3 2 3 3 3 3 3 3 4 6 5 6 9 9 8 8 10 11 11
4 3 5 5 2 4 4 2 3 5 5 5 6 5 9 10 9 11 10 9 9 9 8 9 9 6 7 6 5 3 0 2 3 4 5 5 7 8 7 6 8 8 7 10
4 4 7 7 2 3 4 3 4 6 5 3 2 4 2 5 7 11 10 10 10 11 12 13 11 8 10 8 7 5 3 2 2 1 3 5 6 6 5 6 8 7 8 9
4 4 7 4 3 5 4 6 2 5 4 3 3 4 4 4 7 9 9 10 10 11 12 11 9 10 11 10 7 5 4 4 4 3 2 3 3 3 3 4 5 6 8 8
5 3 7 2 4 6 6 0 4 5 6 8 10 9 8 7 8 9 9 9 9 10 10 8 9 10 11 9 6 6 6 6 6 5 4 4 3 3 3 3 5 6 7 8
8 7 3 2 3 2 3 4 4 6 9 12 11 9 7 7 7 7 8 7 7 7 8 8 8 8 8 6 6 6 7 7 6 6 5 5 4 4 4 4 4 6 6 8
3 4 2 1 1 1 3 5 8 10 11 11 11 9 8 6 5 5 5 5 4 6 7 7 7 6 5 5 5 6 7 6 6 6 6 6 4 4 4 5 6 6 7 8
4 3 2 1 2 5 8 10 13 12 10 10 11 9 7 5 4 4 3 3 3 4 4 4 5 5 5 5 5 6 6 5 5 5 5 5 5 4 5 5 6 8 8 9
7 6 6 4 4 8 12 12 13 13 9 8 8 8 7 5 3 3 3 2 3 2 2 3 4 5 5 4 3 4 4 5 4 5 5 5 6 7 8 9 12 13 13 13
2 4 6 8 7 8 10 11 11 11 10 8 6 6 6 4 2 2 2 1 1 1 2 3 4 5 6 4 3 3 3 4 4 5 5 6 6 7 10 11 11 13 15 16
6 8 8 6 7 9 11 10 10 9 8 7 6 5 5 4 2 1 1 2 2 3 4 4 5 6 6 4 4 4 4 6 6 5 6 6 7 8 8 10 12 11 12 15
7 8 9 9 10 9 9 9 10 8 6 5 4 4 4 3 1 2 3 3 2 4 5 5 6 7 6 5 4 5 5 5 6 6 6 7 7 8 8 10 11 12 12 13
11 13 14 13 11 9 8 8 8 6 5 4 3 2 2 2 2 3 4 3 3 5 6 6 7 7 6 5 5 5 5 9 9 7 7 7 8 8 9 10 11 11 12 13
12 10 11 11 9 7 5 5 5 4 3 3 2 2 2 2 3 5 6 5 4 5 6 6 7 7 5 4 4 4 5 8 11 8 7 8 8 9 10 10 11 12 12 13
9 8 9 10 9 7 5 4 3 3 2 2 2 1 3 4 5 7 7 6 5 6 6 5 5 5 5 5 4 4 5 6 7 7 8 8 9 9 10 11 12 13 12 13
10 9 8 7 7 6 4 3 2 2 2 2 2 3 4 6 6 6 5 4 5 6 6 6 7 5 5 7 6 4 5 7 7 8 8 10 10 9 10 11 12 12 12 12
9 8 7 6 4 3 1 1 2 3 3 2 3 4 6 7 6 5 3 3 3 3 4 5 5 5 6 7 8 5 6 7 8 8 9 9 10 11 11 12 12 12 12 11
7 5 4 3 1 1 2 2 2 4 4 3 3 5 6 6 5 3 2 3 3 3 4 5 5 5 5 6 7 6 6 7 8 8 9 10 10 11 12 12 12 12 12 11
3 2 2 1 2 3 4 3 3 4 4 4 4 4 4 4 4 2 1 1 2 4 4 4 5 7 8 8 6 6 7 8 8 8 9 10 10 11 12 12 12 12 12 11
1 1 2 2 2 3 4 3 3 3 4 4 4 4 3 2 1 1 1 2 3 5 5 5 7 10 10 7 6 7 8 9 9 9 10 10 10 11 11 12 11 11 11 11
1 2 2 2 1 2 3 4 4 3 3 3 3 3 2 1 2 3 3 4 6 7 6 7 10 11 10 6 7 7 8 8 9 10 10 10 10 10 11 11 11 11 11 12
1 1 2 2 2 2 3 4 4 4 4 3 4 5 4 2 2 3 5 6 7 7 6 7 10 11 8 6 7 8 8 8 10 10 10 10 11 11 11 11 11 11 11 11
2 2 2 2 2 2 3 2 2 3 3 2 3 3 4 4 6 5 5 6 7 7 6 5 6 7 7 7 8 8 8 9 10 10 11 11 11 11 11 11 13 11 11 11
2 2 2 3 3 3 3 2 3 3 2 1 1 2 4 5 5 6 6 5 5 5 5 5 5 6 7 7 8 8 8 9 9 10 10 10 10 10 11 13 11 10 10 11
Wind_Direction
234 236 194 220 223 178 183 192 193 227 230 287 317 321 332 342 339 355 309 256 230 225 224 221 218 215 213 213 202 193 192 203 213 213 210 210 211 214 214 214 220 219 220 225
277 254 202 234 243 195 199 196 203 213 236 282 329 20 26 23 32 32 10 347 322 274 249 235 226 222 216 215 202 186 195 211 215 206 207 214 217 216 216 220 221 218 223 226
244 318 57 258 236 200 203 212 190 203 205 137 59 45 31 25 39 41 23 11 9 358 332 291 255 216 208 202 171 177 201 214 210 206 212 219 218 217 222 224 222 224 228 227
157 105 228 250 279 179 169 215 210 166 140 130 116 90 51 39 47 49 37 28 27 24 20 16 17 30 62 96 126 167 211 238 240 230 237 235 225 230 232 229 228 232 234 233
131 186 266 285 208 152 151 247 198 162 157 158 155 94 43 27 44 52 44 34 32 33 36 36 36 44 67 66 69 71 330 262 243 221 229 232 237 243 238 232 237 239 240 234
131 171 236 254 182 143 109 276 206 170 178 186 128 85 43 6 38 52 48 42 41 41 44 42 32 44 63 60 57 39 1 336 317 258 237 238 242 245 241 236 245 250 252 247
157 213 259 256 139 124 171 242 184 160 162 140 111 128 129 70 54 55 52 46 46 49 49 39 32 51 57 50 40 17 19 26 21 3 306 277 270 263 261 254 258 259 261 261
148 197 257 197 146 179 211 101 116 118 117 112 106 102 95 79 66 61 56 49 49 55 47 32 34 54 55 38 10 12 28 32 23 12 5 360 351 330 305 282 276 275 274 277
186 209 244 217 198 196 154 131 123 119 117 118 111 104 94 80 71 62 58 50 46 57 51 32 27 46 51 15 5 22 29 22 11 7 4 3 357 337 324 307 294 291 288 288
223 259 237 225 201 122 131 126 118 117 115 115 112 110 100 88 77 68 56 50 47 57 53 30 15 27 28 5 13 33 29 13 4 2 356 353 347 334 323 314 307 302 299 295
233 237 122 79 141 125 109 109 109 106 107 115 115 113 112 106 97 92 81 60 60 65 56 20 3 7 3 6 22 29 19 6 358 354 346 340 335 322 314 299 294 298 298 295
217 204 166 164 140 123 115 114 114 110 101 103 112 118 113 108 108 102 88 70 61 46 22 343 342 341 338 346 11 18 359 347 339 335 331 330 326 322 303 291 294 291 281 281
154 120 116 117 109 106 109 111 112 112 117 114 111 118 119 117 110 98 78 51 15 314 306 311 322 322 319 327 342 344 324 316 315 319 320 320 320 319 319 316 305 298 295 295
106 103 95 101 108 104 107 107 105 103 108 114 117 115 112 110 101 87 306 285 287 299 304 308 311 307 308 317 322 317 312 310 311 304 306 308 309 308 308 311 315 315 310 303
66 95 113 108 100 100 103 107 105 103 101 99 108 119 125 128 158 256 271 287 312 312 307 310 305 299 307 317 311 307 309 307 306 304 306 306 307 307 306 306 306 308 311 310
93 93 101 103 104 105 107 112 114 117 121 124 132 153 182 199 250 279 287 290 298 295 296 300 295 297 312 316 313 312 310 315 319 312 312 314 313 312 310 309 309 309 309 311
103 103 108 110 107 103 101 112 126 136 139 148 192 237 264 284 297 295 295 298 281 277 284 287 293 306 319 322 320 318 318 320 324 321 315 314 313 311 310 310 310 309 307 306
98 109 121 127 126 119 117 121 138 150 174 226 253 273 277 272 273 279 289 305 313 310 308 309 312 323 336 338 337 330 325 321 322 320 319 317 315 312 311 310 310 309 310 312
85 90 93 99 109 120 134 164 202 237 263 274 274 273 274 272 271 277 290 307 306 302 311 333 346 356 350 346 350 338 332 329 327 325 323 319 318 318 316 314 312 311 311 314
83 87 89 90 96 116 164 245 268 285 290 289 285 286 287 286 287 287 288 282 275 277 306 341 1 5 356 350 356 347 341 336 332 330 329 326 323 320 318 316 314 313 312 314
83 87 89 87 55 355 333 326 311 299 302 303 278 273 278 290 301 295 283 296 327 1 19 23 20 8 1 360 359 353 346 341 338 334 330 326 323 321 319 318 317 315 315 315
70 60 45 16 346 332 334 338 323 311 316 317 306 297 302 312 330 348 351 303 357 36 43 31 21 16 13 10 1 354 348 343 338 333 328 325 322 320 319 319 319 318 316 315
18 344 339 332 320 315 331 343 341 329 319 316 315 314 308 305 318 338 354 34 60 59 50 34 22 21 18 12 2 355 348 343 337 332 328 324 321 320 320 319 319 319 320 321
331 342 331 325 346 1 347 336 340 336 329 326 330 328 324 17 37 44 76 78 69 65 51 34 30 24 18 9 359 352 345 339 334 331 328 326 325 323 322 322 322 322 322 323
6 359 8 20 16 329 307 318 333 344 351 358 8 19 25 49 90 85 83 80 73 64 50 32 25 18 12 2 357 351 346 342 340 337 333 332 331 330 329 329 329 327 328 328
26 3 342 322 295 294 305 317 318 317 327 345 5 33 56 72 85 85 81 77 69 58 44 26 14 10 6 1 357 353 350 345 343 341 339 338 336 336 335 336 334 335 334 333
7 355 343 336 329 321 313 305 300 301 302 301 36 70 83 89 89 86 80 70 59 49 36 24 15 10 7 4 2 359 355 351 349 346 344 342 341 340 341 340 339 338 339 338
Height
1493 1490 1491 1492 1492 1496 1501 1504 1509 1504 1502 1496 1493 1490 1487 1484 1483 1484 1485 1486 1488 1490 1493 1496 1498 1501 1503 1505 1508 1511 1513 1515 1516 1518 1520 1522 1523 1524 1525 1526 1526 1527 1527 1527
1491 1487 1489 1492 1490 1491 1494 1495 1498 1497 1498 1493 1492 1489 1487 1484 1482 1482 1483 1484 1486 1487 1490 1492 1494 1496 1498 1500 1503 1505 1508 1509 1511 1513 1515 1516 1517 1519 1519 1520 1521 1521 1521 1521
1500 1492 1490 1498 1490 1490 1491 1490 1492 1495 1494 1492 1492 1490 1488 1486 1484 1483 1484 1484 1485 1486 1487 1489 1491 1492 1494 1496 1498 1500 1502 1504 1506 1508 1509 1511 1512 1513 1513 1514 1515 1515 1515 1515
1502 1498 1507 1494 1485 1484 1488 1488 1488 1489 1490 1491 1492 1492 1491 1489 1487 1484 1485 1485 1485 1486 1487 1488 1489 1490 1491 1493 1494 1496 1498 1500 1501 1503 1504 1506 1507 1507 1507 1508 1508 1508 1508 1508
1506 1506 1500 1490 1484 1485 1488 1489 1487 1488 1489 1490 1491 1491 1493 1492 1490 1488 1488 1489 1488 1488 1488 1488 1488 1489 1490 1491 1492 1493 1495 1496 1496 1497 1498 1499 1500 1500 1501 1501 1501 1501 1501 1500
1504 1504 1506 1489 1481 1482 1486 1491 1484 1486 1488 1489 1488 1493 1498 1495 1493 1491 1492 1492 1491 1491 1490 1489 1489 1490 1490 1490 1490 1491 1492 1492 1492 1493 1493 1492 1493 1493 1493 1493 1493 1493 1492 1492
1501 1502 1494 1482 1480 1483 1495 1490 1482 1483 1486 1487 1489 1493 1497 1496 1495 1495 1495 1495 1495 1495 1493 1493 1492 1492 1490 1490 1489 1490 1489 1489 1489 1488 1488 1487 1487 1486 1486 1485 1485 1484 1484 1483
1502 1502 1496 1480 1480 1483 1484 1480 1481 1483 1485 1487 1490 1493 1496 1497 1498 1498 1498 1498 1498 1497 1497 1496 1495 1493 1492 1491 1490 1489 1488 1487 1486 1485 1484 1483 1481 1481 1480 1479 1477 1477 1475 1474
1489 1488 1480 1477 1478 1479 1479 1480 1481 1483 1486 1488 1491 1495 1498 1499 1500 1501 1501 1501 1501 1500 1499 1498 1496 1495 1493 1493 1491 1489 1487 1485 1484 1483 1481 1479 1478 1477 1475 1474 1472 1470 1468 1466
1482 1478 1476 1476 1477 1477 1479 1480 1482 1485 1488 1491 1494 1497 1500 1501 1502 1503 1503 1503 1502 1501 1500 1498 1497 1496 1494 1493 1491 1489 1487 1485 1483 1481 1479 1477 1475 1474 1472 1469 1466 1464 1461 1459
1478 1476 1475 1476 1476 1477 1479 1482 1484 1488 1491 1494 1497 1499 1501 1503 1504 1504 1504 1504 1503 1501 1500 1499 1498 1496 1494 1493 1491 1488 1486 1484 1482 1479 1477 1474 1472 1470 1468 1465 1463 1459 1456 1453
1474 1470 1472 1475 1477 1479 1480 1484 1487 1490 1495 1498 1500 1501 1503 1504 1504 1504 1504 1503 1502 1501 1500 1499 1497 1496 1494 1492 1490 1488 1485 1483 1480 1477 1474 1471 1468 1466 1463 1461 1457 1454 1450 1446
1468 1469 1471 1474 1478 1481 1483 1487 1490 1494 1497 1499 1502 1503 1504 1504 1505 1504 1504 1503 1502 1501 1499 1498 1496 1495 1493 1491 1488 1486 1483 1481 1478 1475 1471 1468 1464 1459 1455 1452 1449 1446 1442 1438
1468 1470 1474 1477 1481 1485 1488 1491 1494 1496 1499 1501 1503 1504 1504 1505 1504 1504 1503 1502 1501 1500 1498 1497 1495 1493 1491 1489 1486 1484 1481 1478 1474 1471 1467 1463 1459 1455 1450 1445 1440 1435 1433 1430
1471 1472 1476 1481 1485 1489 1492 1495 1497 1499 1501 1503 1504 1504 1504 1504 1504 1503 1502 1501 1500 1498 1497 1495 1493 1491 1489 1486 1483 1480 1477 1474 1470 1466 1462 1458 1454 1449 1445 1440 1435 1429 1424 1421
1475 1477 1481 1485 1489 1493 1496 1498 1499 1501 1503 1503 1504 1504 1504 1503 1503 1502 1501 1499 1498 1496 1494 1492 1490 1488 1485 1482 1479 1476 1473 1469 1465 1461 1457 1452 1448 1443 1439 1434 1429 1424 1419 1414
1478 1483 1486 1490 1493 1496 1498 1500 1502 1503 1503 1503 1503 1503 1503 1502 1501 1500 1499 1497 1496 1494 1492 1489 1487 1484 1481 1478 1475 1471 1467 1464 1460 1455 1451 1446 1442 1437 1433 1428 1423 1418 1413 1409
1485 1487 1490 1493 1495 1498 1500 1502 1503 1503 1503 1503 1502 1502 1501 1500 1499 1498 1496 1495 1493 1491 1489 1486 1483 1480 1477 1474 1470 1466 1462 1458 1454 1449 1445 1441 1436 1432 1427 1422 1417 1412 1407 1402
1490 1492 1495 1496 1498 1500 1501 1502 1503 1503 1502 1501 1501 1500 1499 1498 1497 1495 1493 1491 1489 1487 1485 1482 1479 1476 1473 1469 1465 1461 1457 1452 1448 1444 1439 1435 1430 1426 1422 1417 1412 1407 1402 1397
1494 1496 1498 1499 1500 1501 1502 1502 1502 1501 1500 1500 1499 1497 1496 1495 1494 1492 1490 1488 1486 1483 1481 1478 1475 1471 1468 1464 1460 1456 1452 1447 1443 1438 1434 1430 1425 1421 1416 1412 1407 1402 1397 1393
1497 1499 1500 1501 1501 1501 1501 1501 1500 1499 1498 1497 1496 1495 1493 1492 1490 1488 1486 1484 1482 1479 1477 1474 1471 1467 1463 1459 1455 1451 1447 1443 1439 1434 1430 1426 1421 1417 1412 1407 1403 1398 1393 1388
1500 1500 1501 1501 1500 1500 1500 1499 1498 1497 1496 1495 1493 1492 1490 1488 1486 1484 1482 1481 1478 1476 1473 1470 1467 1463 1459 1456 1452 1448 1444 1440 1436 1431 1427 1422 1418 1413 1408 1404 1399 1394 1389 1385
1500 1500 1500 1500 1499 1499 1498 1497 1496 1495 1493 1492 1490 1488 1487 1485 1483 1481 1480 1477 1475 1473 1470 1467 1463 1460 1456 1452 1448 1445 1441 1437 1433 1428 1424 1419 1415 1410 1406 1401 1396 1391 1386 1382
1500 1500 1499 1499 1498 1497 1496 1495 1493 1492 1491 1489 1488 1486 1484 1482 1480 1478 1476 1474 1472 1470 1467 1464 1461 1457 1453 1450 1446 1442 1438 1434 1430 1426 1422 1417 1413 1408 1403 1399 1394 1389 1384 1380
1499 1498 1498 1497 1496 1494 1493 1492 1491 1489 1488 1486 1485 1483 1481 1480 1478 1476 1474 1472 1470 1468 1465 1462 1459 1455 1451 1448 1444 1440 1437 1433 1429 1425 1420 1416 1411 1406 1402 1397 1392 1387 1383 1378
1497 1497 1495 1494 1493 1492 1491 1489 1488 1486 1485 1483 1482 1480 1478 1477 1475 1474 1472 1470 1468 1466 1464 1461 1458 1454 1451 1447 1444 1440 1437 1433 1428 1424 1420 1415 1410 1405 1401 1396 1391 1387 1382 1377
1496 1495 1493 1492 1491 1489 1488 1486 1485 1483 1482 1480 1479 1477 1476 1475 1473 1472 1471 1469 1468 1465 1463 1460 1457 1454 1451 1447 1444 1441 1437 1433 1429 1424 1420 1415 1410 1406 1401 1396 1391 1387 1382 1378